Location: Knowlton
(51.2333°N, 1.2667°E)
Time: 04:40:44
(UTC+00:00)

Cosmos 2082 - Pass Details

Date: 18 April 2021
Orbit: 834 x 855 km, 71.0° (Epoch: 06 May)

Event Time Altitude Azimuth Distance (km) Brightness Sun altitude
Exits shadow 21:39:16 42° 122° (ESE) 1,183 4.0 -21.1°
Maximum altitude 21:39:43 43° 109° (ESE) 1,168 4.0 -21.2°
Drops below altitude 10° 21:44:59 10° 40° (NE) 2,458 6.3 -21.6°
Sets 21:47:32 0° 34° (NE) 3,399 7.1 -21.8°
